Time,TemperatureF,DewpointF,PressureIn,WindDirection,WindDirectionDegrees,WindSpeedMPH,WindSpeedGustMPH,Humidity,HourlyPrecipIn,Conditions,Clouds,dailyrainin,SolarRadiationWatts/m^2,SoftwareType,DateUTC
2013-11-11 00:00:00,42.5,31.9,29.92,West,270,4.0,11.0,66,0.00,,,0.00,0000,Weather View 32 v70,2013-11-11 05:00:00,
2013-11-11 00:05:00,42.8,32.2,29.93,NW,315,3.0,11.0,66,0.00,,,0.00,0016,Weather View 32 v70,2013-11-11 05:05:00,
2013-11-11 00:10:00,42.8,31.9,29.93,WSW,248,6.0,11.0,65,0.00,,,0.00,0000,Weather View 32 v70,2013-11-11 05:10:00,
2013-11-11 00:15:00,42.9,32.0,29.93,WSW,248,2.0,11.0,65,0.00,,,0.00,0000,Weather View 32 v70,2013-11-11 05:15:00,
2013-11-11 00:20:00,43.1,31.7,29.93,WNW,293,0.0,11.0,64,0.00,,,0.00,0000,Weather View 32 v70,2013-11-11 05:20:00,
2013-11-11 00:25:00,43.2,32.2,29.93,West,270,0.0,11.0,65,0.00,,,0.00,0000,Weather View 32 v70,2013-11-11 05:25:00,
2013-11-11 00:30:00,43.1,32.1,29.93,WNW,293,0.0,11.0,65,0.00,,,0.00,0000,Weather View 32 v70,2013-11-11 05:30:00,
2013-11-11 00:35:00,43.1,31.7,29.94,NNW,338,0.0,11.0,64,0.00,,,0.00,0000,Weather View 32 v70,2013-11-11 05:35:00,
2013-11-11 00:40:00,43.1,32.1,29.94,NNW,338,0.0,11.0,65,0.00,,,0.00,0000,Weather View 32 v70,2013-11-11 05:40:00,
2013-11-11 00:45:00,42.9,31.6,29.95,NNW,338,0.0,11.0,64,0.00,,,0.00,0000,Weather View 32 v70,2013-11-11 05:45:00,
2013-11-11 00:55:00,42.9,31.6,29.95,NW,315,0.0,11.0,64,0.00,,,0.00,0008,Weather View 32 v70,2013-11-11 05:55:00,
2013-11-11 01:00:00,43.1,31.3,29.95,NW,315,0.0,11.0,63,0.00,,,0.00,0000,Weather View 32 v70,2013-11-11 06:00:00,
2013-11-11 01:05:00,43.2,31.4,29.96,NW,315,0.0,11.0,63,0.00,,,0.00,0008,Weather View 32 v70,2013-11-11 06:05:00,
2013-11-11 01:15:00,42.7,31.4,29.97,North,0,0.0,7.0,64,0.00,,,0.00,0000,Weather View 32 v70,2013-11-11 06:15:00,
2013-11-11 01:20:00,42.6,30.5,29.97,SW,225,0.0,8.0,62,0.00,,,0.00,0000,Weather View 32 v70,2013-11-11 06:20:00,
2013-11-11 01:25:00,42.5,30.0,29.97,NW,315,4.0,16.0,61,0.00,,,0.00,0000,Weather View 32 v70,2013-11-11 06:25:00,
2013-11-11 01:30:00,42.2,29.2,29.98,WNW,293,5.0,16.0,60,0.00,,,0.00,0000,Weather View 32 v70,2013-11-11 06:30:00,
2013-11-11 01:40:00,41.7,29.2,29.97,WNW,293,0.0,16.0,61,0.00,,,0.00,0000,Weather View 32 v70,2013-11-11 06:40:00,
2013-11-11 01:45:00,41.4,28.9,29.97,NNW,338,0.0,16.0,61,0.00,,,0.00,0000,Weather View 32 v70,2013-11-11 06:45:00,
2013-11-11 01:50:00,41.3,28.8,29.98,NW,315,2.0,16.0,61,0.00,,,0.00,0000,Weather View 32 v70,2013-11-11 06:50:00,
2013-11-11 02:00:00,40.9,28.9,29.99,NNW,338,1.0,16.0,62,0.00,,,0.00,0000,Weather View 32 v70,2013-11-11 07:00:00,
2013-11-11 02:05:00,41.3,28.8,29.99,NW,315,0.0,16.0,61,0.00,,,0.00,0000,Weather View 32 v70,2013-11-11 07:05:00,
2013-11-11 02:15:00,41.1,28.7,29.99,WNW,293,3.0,16.0,61,0.00,,,0.00,0016,Weather View 32 v70,2013-11-11 07:15:00,
2013-11-11 02:20:00,41.1,28.7,29.98,North,0,0.0,16.0,61,0.00,,,0.00,0008,Weather View 32 v70,2013-11-11 07:20:00,
2013-11-11 02:25:00,41.0,28.6,29.99,SW,225,0.0,11.0,61,0.00,,,0.00,0000,Weather View 32 v70,2013-11-11 07:25:00,
2013-11-11 02:30:00,41.0,28.6,29.98,WNW,293,0.0,11.0,61,0.00,,,0.00,0008,Weather View 32 v70,2013-11-11 07:30:00,
2013-11-11 02:40:00,40.8,28.8,29.99,NNW,338,3.0,11.0,62,0.00,,,0.00,0000,Weather View 32 v70,2013-11-11 07:40:00,
2013-11-11 02:50:00,40.8,28.8,29.99,WNW,293,3.0,11.0,62,0.00,,,0.00,0008,Weather View 32 v70,2013-11-11 07:50:00,
2013-11-11 02:55:00,40.7,28.7,29.99,West,270,2.0,11.0,62,0.00,,,0.00,0000,Weather View 32 v70,2013-11-11 07:55:00,
2013-11-11 03:05:00,40.5,28.1,29.99,West,270,3.0,11.0,61,0.00,,,0.00,0000,Weather View 32 v70,2013-11-11 08:05:00,
2013-11-11 03:10:00,40.4,28.0,30.00,WNW,293,0.0,11.0,61,0.00,,,0.00,0000,Weather View 32 v70,2013-11-11 08:10:00,
2013-11-11 03:15:00,40.1,28.5,30.00,WNW,293,4.0,13.0,63,0.00,,,0.00,0000,Weather View 32 v70,2013-11-11 08:15:00,
2013-11-11 03:25:00,40.5,28.1,30.00,WSW,248,3.0,13.0,61,0.00,,,0.00,0000,Weather View 32 v70,2013-11-11 08:25:00,
2013-11-11 03:30:00,40.1,27.7,30.00,WNW,293,1.0,13.0,61,0.00,,,0.00,0016,Weather View 32 v70,2013-11-11 08:30:00,
2013-11-11 03:40:00,40.0,27.6,30.01,North,0,0.0,13.0,61,0.00,,,0.00,0000,Weather View 32 v70,2013-11-11 08:40:00,
2013-11-11 03:45:00,39.8,27.4,30.01,NW,315,5.0,13.0,61,0.00,,,0.00,0000,Weather View 32 v70,2013-11-11 08:45:00,
2013-11-11 03:55:00,39.6,27.6,30.02,West,270,1.0,13.0,62,0.00,,,0.00,0000,Weather View 32 v70,2013-11-11 08:55:00,
2013-11-11 04:00:00,39.2,27.7,30.02,West,270,3.0,13.0,63,0.00,,,0.00,0000,Weather View 32 v70,2013-11-11 09:00:00,
2013-11-11 04:05:00,39.2,28.1,30.02,WNW,293,5.0,13.0,64,0.00,,,0.00,0000,Weather View 32 v70,2013-11-11 09:05:00,
2013-11-11 04:15:00,39.0,27.5,30.03,WNW,293,0.0,13.0,63,0.00,,,0.00,0008,Weather View 32 v70,2013-11-11 09:15:00,
2013-11-11 04:20:00,38.8,27.6,30.03,WNW,293,0.0,13.0,64,0.00,,,0.00,0000,Weather View 32 v70,2013-11-11 09:20:00,
2013-11-11 04:25:00,38.6,27.4,30.04,SSE,158,0.0,13.0,64,0.00,,,0.00,0008,Weather View 32 v70,2013-11-11 09:25:00,
2013-11-11 04:30:00,38.3,27.2,30.04,West,270,0.0,13.0,64,0.00,,,0.00,0016,Weather View 32 v70,2013-11-11 09:30:00,
2013-11-11 04:35:00,38.2,27.1,30.04,NW,315,0.0,13.0,64,0.00,,,0.00,0000,Weather View 32 v70,2013-11-11 09:35:00,
2013-11-11 04:40:00,38.1,27.4,30.05,WSW,248,1.0,13.0,65,0.00,,,0.00,0000,Weather View 32 v70,2013-11-11 09:40:00,
2013-11-11 04:45:00,37.9,27.1,30.05,WNW,293,0.0,13.0,65,0.00,,,0.00,0000,Weather View 32 v70,2013-11-11 09:45:00,
2013-11-11 04:50:00,37.5,26.8,30.05,NW,315,0.0,13.0,65,0.00,,,0.00,0000,Weather View 32 v70,2013-11-11 09:50:00,
2013-11-11 05:00:00,37.1,26.8,30.06,WNW,293,0.0,13.0,66,0.00,,,0.00,0000,Weather View 32 v70,2013-11-11 10:00:00,
2013-11-11 05:05:00,36.8,26.8,30.06,NW,315,0.0,13.0,67,0.00,,,0.00,0016,Weather View 32 v70,2013-11-11 10:05:00,
2013-11-11 05:15:00,37.0,26.7,30.06,West,270,0.0,7.0,66,0.00,,,0.00,0000,Weather View 32 v70,2013-11-11 10:15:00,
2013-11-11 05:20:00,37.2,26.1,30.06,WNW,293,0.0,5.0,64,0.00,,,0.00,0000,Weather View 32 v70,2013-11-11 10:20:00,
2013-11-11 05:25:00,37.7,26.2,30.06,NNW,338,0.0,5.0,63,0.00,,,0.00,0000,Weather View 32 v70,2013-11-11 10:25:00,
2013-11-11 05:35:00,37.7,25.8,30.06,South,180,0.0,5.0,62,0.00,,,0.00,0000,Weather View 32 v70,2013-11-11 10:35:00,
2013-11-11 05:40:00,38.0,25.3,30.07,West,270,3.0,5.0,60,0.00,,,0.00,0000,Weather View 32 v70,2013-11-11 10:40:00,
2013-11-11 05:46:00,38.1,25.4,30.07,WSW,248,0.0,5.0,60,0.00,,,0.00,0000,Weather View 32 v70,2013-11-11 10:46:00,
2013-11-11 05:55:00,37.7,25.4,30.07,WNW,293,0.0,5.0,61,0.00,,,0.00,0000,Weather View 32 v70,2013-11-11 10:55:00,
2013-11-11 06:00:00,37.7,25.0,30.08,West,270,0.0,5.0,60,0.00,,,0.00,0000,Weather View 32 v70,2013-11-11 11:00:00,
2013-11-11 06:05:00,37.7,25.0,30.08,WNW,293,0.0,6.0,60,0.00,,,0.00,0008,Weather View 32 v70,2013-11-11 11:05:00,
2013-11-11 06:15:00,37.9,25.2,30.08,WNW,293,0.0,6.0,60,0.00,,,0.00,0000,Weather View 32 v70,2013-11-11 11:15:00,
2013-11-11 06:20:00,37.8,25.1,30.08,North,0,0.0,6.0,60,0.00,,,0.00,0000,Weather View 32 v70,2013-11-11 11:20:00,
2013-11-11 06:25:00,37.8,25.1,30.08,NW,315,0.0,12.0,60,0.00,,,0.00,0000,Weather View 32 v70,2013-11-11 11:25:00,
2013-11-11 06:30:00,37.7,25.0,30.08,SW,225,1.0,12.0,60,0.00,,,0.00,0000,Weather View 32 v70,2013-11-11 11:30:00,
2013-11-11 06:40:00,37.8,25.5,30.09,West,270,0.0,13.0,61,0.00,,,0.00,0008,Weather View 32 v70,2013-11-11 11:40:00,
2013-11-11 06:45:00,37.7,25.0,30.09,West,270,0.0,13.0,60,0.00,,,0.00,0008,Weather View 32 v70,2013-11-11 11:45:00,
2013-11-11 06:55:00,37.5,24.9,30.10,WNW,293,0.0,13.0,60,0.00,,,0.00,0016,Weather View 32 v70,2013-11-11 11:55:00,
2013-11-11 07:00:00,37.5,25.3,30.11,WSW,248,2.0,13.0,61,0.00,,,0.00,0016,Weather View 32 v70,2013-11-11 12:00:00,
2013-11-11 07:05:00,37.7,25.4,30.11,West,270,0.0,13.0,61,0.00,,,0.00,0040,Weather View 32 v70,2013-11-11 12:05:00,
2013-11-11 07:15:00,37.8,25.5,30.12,WSW,248,0.0,13.0,61,0.00,,,0.00,0056,Weather View 32 v70,2013-11-11 12:15:00,
2013-11-11 07:20:00,38.1,25.4,30.12,WSW,248,0.0,13.0,60,0.00,,,0.00,0040,Weather View 32 v70,2013-11-11 12:20:00,
2013-11-11 07:25:00,38.4,25.7,30.12,West,270,0.0,13.0,60,0.00,,,0.00,0024,Weather View 32 v70,2013-11-11 12:25:00,
2013-11-11 07:35:00,39.0,25.9,30.12,SW,225,0.0,11.0,59,0.00,,,0.00,0024,Weather View 32 v70,2013-11-11 12:35:00,
2013-11-11 07:40:00,39.2,26.1,30.12,NW,315,0.0,11.0,59,0.00,,,0.00,0064,Weather View 32 v70,2013-11-11 12:40:00,
2013-11-11 07:45:00,39.7,26.1,30.12,NW,315,0.0,11.0,58,0.00,,,0.00,0048,Weather View 32 v70,2013-11-11 12:45:00,
2013-11-11 07:50:00,39.9,25.9,30.12,WNW,293,0.0,11.0,57,0.00,,,0.00,0080,Weather View 32 v70,2013-11-11 12:50:00,
2013-11-11 07:55:00,40.1,26.1,30.12,West,270,5.0,11.0,57,0.00,,,0.00,0136,Weather View 32 v70,2013-11-11 12:55:00,
2013-11-11 08:05:00,40.6,26.5,30.13,WSW,248,2.0,11.0,57,0.00,,,0.00,0176,Weather View 32 v70,2013-11-11 13:05:00,
2013-11-11 08:10:00,41.0,25.6,30.13,WSW,248,5.0,11.0,54,0.00,,,0.00,0136,Weather View 32 v70,2013-11-11 13:10:00,
2013-11-11 08:15:00,41.5,26.0,30.13,SW,225,10.0,11.0,54,0.00,,,0.00,0120,Weather View 32 v70,2013-11-11 13:15:00,
2013-11-11 08:25:00,42.0,25.7,30.13,North,0,1.0,10.0,52,0.00,,,0.00,0176,Weather View 32 v70,2013-11-11 13:25:00,
2013-11-11 08:30:00,42.0,25.7,30.13,NNW,338,0.0,10.0,52,0.00,,,0.00,0224,Weather View 32 v70,2013-11-11 13:30:00,
2013-11-11 08:35:00,42.2,25.3,30.13,WNW,293,0.0,10.0,51,0.00,,,0.00,0304,Weather View 32 v70,2013-11-11 13:35:00,
2013-11-11 08:45:00,42.4,25.5,30.13,NW,315,1.0,10.0,51,0.00,,,0.00,0304,Weather View 32 v70,2013-11-11 13:45:00,
2013-11-11 08:50:00,42.7,25.8,30.13,NNW,338,0.0,10.0,51,0.00,,,0.00,0304,Weather View 32 v70,2013-11-11 13:50:00,
2013-11-11 08:55:00,42.9,25.5,30.13,NW,315,3.0,11.0,50,0.00,,,0.00,0296,Weather View 32 v70,2013-11-11 13:55:00,
2013-11-11 09:00:00,43.2,25.8,30.13,ENE,68,1.0,11.0,50,0.00,,,0.00,0312,Weather View 32 v70,2013-11-11 14:00:00,
2013-11-11 09:05:00,43.6,27.1,30.13,West,270,0.0,11.0,52,0.00,,,0.00,0352,Weather View 32 v70,2013-11-11 14:05:00,
2013-11-11 09:15:00,44.2,26.2,30.13,WSW,248,3.0,12.0,49,0.00,,,0.00,0464,Weather View 32 v70,2013-11-11 14:15:00,
2013-11-11 09:20:00,44.4,25.4,30.13,WNW,293,5.0,12.0,47,0.00,,,0.00,0432,Weather View 32 v70,2013-11-11 14:20:00,
2013-11-11 09:25:00,44.4,25.9,30.13,WNW,293,2.0,12.0,48,0.00,,,0.00,0296,Weather View 32 v70,2013-11-11 14:25:00,
2013-11-11 09:30:00,44.4,25.9,30.13,NNW,338,3.0,12.0,48,0.00,,,0.00,0304,Weather View 32 v70,2013-11-11 14:30:00,
2013-11-11 09:35:00,44.5,26.0,30.13,WSW,248,2.0,15.0,48,0.00,,,0.00,0272,Weather View 32 v70,2013-11-11 14:35:00,
2013-11-11 09:45:00,44.5,25.5,30.13,WNW,293,3.0,15.0,47,0.00,,,0.00,0312,Weather View 32 v70,2013-11-11 14:45:00,
2013-11-11 09:50:00,44.5,25.0,30.13,West,270,0.0,15.0,46,0.00,,,0.00,0264,Weather View 32 v70,2013-11-11 14:50:00,
2013-11-11 10:00:00,45.2,26.1,30.13,NW,315,1.0,15.0,47,0.00,,,0.00,0352,Weather View 32 v70,2013-11-11 15:00:00,
2013-11-11 10:10:00,45.5,25.4,30.13,NNW,338,1.0,15.0,45,0.00,,,0.00,0472,Weather View 32 v70,2013-11-11 15:10:00,
2013-11-11 10:15:00,45.9,25.7,30.12,NW,315,1.0,15.0,45,0.00,,,0.00,0376,Weather View 32 v70,2013-11-11 15:15:00,
2013-11-11 10:20:00,46.0,25.8,30.12,NNW,338,5.0,15.0,45,0.00,,,0.00,0440,Weather View 32 v70,2013-11-11 15:20:00,
2013-11-11 10:30:00,46.5,25.8,30.12,WNW,293,0.0,15.0,44,0.00,,,0.00,0432,Weather View 32 v70,2013-11-11 15:30:00,
2013-11-11 10:40:00,46.4,25.1,30.12,WSW,248,0.0,12.0,43,0.00,,,0.00,0296,Weather View 32 v70,2013-11-11 15:40:00,
2013-11-11 10:49:00,46.3,24.4,30.12,NW,315,1.0,12.0,42,0.00,,,0.00,0232,Weather View 32 v70,2013-11-11 15:49:00,
2013-11-11 10:55:00,46.1,25.9,30.12,West,270,0.0,12.0,45,0.00,,,0.00,0272,Weather View 32 v70,2013-11-11 15:55:00,
2013-11-11 11:05:00,46.3,26.6,30.11,SSW,203,0.0,12.0,46,0.00,,,0.00,0192,Weather View 32 v70,2013-11-11 16:05:00,
2013-11-11 11:15:00,45.8,25.0,30.11,NNW,338,2.0,11.0,44,0.00,,,0.00,0464,Weather View 32 v70,2013-11-11 16:15:00,
2013-11-11 11:20:00,46.3,26.1,30.11,West,270,0.0,11.0,45,0.00,,,0.00,0496,Weather View 32 v70,2013-11-11 16:20:00,
2013-11-11 11:30:00,46.9,25.5,30.11,SW,225,1.0,15.0,43,0.00,,,0.00,0504,Weather View 32 v70,2013-11-11 16:30:00,
2013-11-11 11:40:00,47.0,25.6,30.10,WNW,293,4.0,15.0,43,0.00,,,0.00,0384,Weather View 32 v70,2013-11-11 16:40:00,
2013-11-11 11:49:00,46.9,24.4,30.10,WNW,293,3.0,15.0,41,0.00,,,0.00,0344,Weather View 32 v70,2013-11-11 16:49:00,
2013-11-11 11:55:00,47.2,24.7,30.10,SSW,203,2.0,15.0,41,0.00,,,0.00,0472,Weather View 32 v70,2013-11-11 16:55:00,
2013-11-11 12:00:00,47.8,25.2,30.10,North,0,0.0,15.0,41,0.00,,,0.00,0472,Weather View 32 v70,2013-11-11 17:00:00,
2013-11-11 12:05:00,48.0,25.4,30.09,WSW,248,0.0,15.0,41,0.00,,,0.00,0488,Weather View 32 v70,2013-11-11 17:05:00,
2013-11-11 12:15:00,48.3,25.1,30.09,West,270,5.0,15.0,40,0.00,,,0.00,0480,Weather View 32 v70,2013-11-11 17:15:00,
2013-11-11 12:25:00,48.8,24.9,30.08,SW,225,1.0,11.0,39,0.00,,,0.00,0480,Weather View 32 v70,2013-11-11 17:25:00,
2013-11-11 12:30:00,48.7,24.8,30.08,West,270,3.0,11.0,39,0.00,,,0.00,0472,Weather View 32 v70,2013-11-11 17:30:00,
2013-11-11 12:40:00,48.8,23.6,30.07,WSW,248,5.0,11.0,37,0.00,,,0.00,0432,Weather View 32 v70,2013-11-11 17:40:00,
2013-11-11 12:45:00,48.9,24.4,30.07,NNE,23,0.0,9.0,38,0.00,,,0.00,0448,Weather View 32 v70,2013-11-11 17:45:00,
2013-11-11 12:50:00,49.0,24.5,30.07,West,270,4.0,9.0,38,0.00,,,0.00,0408,Weather View 32 v70,2013-11-11 17:50:00,
2013-11-11 13:00:00,48.9,25.0,30.07,SW,225,0.0,9.0,39,0.00,,,0.00,0408,Weather View 32 v70,2013-11-11 18:00:00,
2013-11-11 13:10:00,49.6,25.0,30.06,WSW,248,3.0,9.0,38,0.00,,,0.00,0416,Weather View 32 v70,2013-11-11 18:10:00,
2013-11-11 13:20:00,49.8,24.5,30.06,WSW,248,1.0,9.0,37,0.00,,,0.00,0400,Weather View 32 v70,2013-11-11 18:20:00,
2013-11-11 13:25:00,49.8,25.8,30.06,SW,225,4.0,9.0,39,0.00,,,0.00,0376,Weather View 32 v70,2013-11-11 18:25:00,
2013-11-11 13:30:00,49.8,25.2,30.05,SSW,203,2.0,9.0,38,0.00,,,0.00,0352,Weather View 32 v70,2013-11-11 18:30:00,
2013-11-11 13:35:00,49.7,26.3,30.05,SSW,203,2.0,9.0,40,0.00,,,0.00,0344,Weather View 32 v70,2013-11-11 18:35:00,
2013-11-11 13:40:00,50.0,25.4,30.05,WSW,248,0.0,9.0,38,0.00,,,0.00,0344,Weather View 32 v70,2013-11-11 18:40:00,
2013-11-11 13:50:00,50.1,25.5,30.05,WNW,293,1.0,9.0,38,0.00,,,0.00,0328,Weather View 32 v70,2013-11-11 18:50:00,
2013-11-11 13:55:00,50.0,24.7,30.05,WNW,293,3.0,11.0,37,0.00,,,0.00,0328,Weather View 32 v70,2013-11-11 18:55:00,
2013-11-11 14:00:00,50.0,25.4,30.05,SSW,203,1.0,11.0,38,0.00,,,0.00,0320,Weather View 32 v70,2013-11-11 19:00:00,
2013-11-11 14:10:00,50.4,28.1,30.04,SSW,203,4.0,11.0,42,0.00,,,0.00,0280,Weather View 32 v70,2013-11-11 19:10:00,
2013-11-11 14:15:00,49.9,28.3,30.04,WNW,293,3.0,11.0,43,0.00,,,0.00,0296,Weather View 32 v70,2013-11-11 19:15:00,
2013-11-11 14:20:00,49.7,28.6,30.04,West,270,3.0,11.0,44,0.00,,,0.00,0256,Weather View 32 v70,2013-11-11 19:20:00,
2013-11-11 14:30:00,49.7,29.2,30.04,WNW,293,0.0,11.0,45,0.00,,,0.00,0136,Weather View 32 v70,2013-11-11 19:30:00,
2013-11-11 14:35:00,49.1,28.7,30.04,SW,225,2.0,11.0,45,0.00,,,0.00,0168,Weather View 32 v70,2013-11-11 19:35:00,
2013-11-11 14:45:00,48.6,29.2,30.05,WNW,293,0.0,11.0,47,0.00,,,0.00,0136,Weather View 32 v70,2013-11-11 19:45:00,
2013-11-11 14:50:00,48.6,29.2,30.04,WNW,293,4.0,11.0,47,0.00,,,0.00,0128,Weather View 32 v70,2013-11-11 19:50:00,
2013-11-11 15:00:00,48.3,29.5,30.04,WNW,293,1.0,10.0,48,0.00,,,0.00,0104,Weather View 32 v70,2013-11-11 20:00:00,
2013-11-11 15:05:00,48.2,29.9,30.04,SSW,203,3.0,14.0,49,0.00,,,0.00,0080,Weather View 32 v70,2013-11-11 20:05:00,
2013-11-11 15:15:00,48.2,30.4,30.04,WSW,248,6.0,14.0,50,0.00,,,0.00,0064,Weather View 32 v70,2013-11-11 20:15:00,
2013-11-11 15:20:00,47.9,30.1,30.04,WNW,293,0.0,14.0,50,0.00,,,0.00,0064,Weather View 32 v70,2013-11-11 20:20:00,
2013-11-11 15:25:00,47.8,30.5,30.05,WSW,248,6.0,14.0,51,0.00,,,0.00,0032,Weather View 32 v70,2013-11-11 20:25:00,
2013-11-11 15:30:00,47.7,30.9,30.04,NW,315,5.0,14.0,52,0.00,,,0.00,0024,Weather View 32 v70,2013-11-11 20:30:00,
2013-11-11 15:40:00,47.4,29.7,30.05,SW,225,3.0,17.0,50,0.00,,,0.00,0024,Weather View 32 v70,2013-11-11 20:40:00,
2013-11-11 15:45:00,47.3,30.6,30.05,SW,225,2.0,17.0,52,0.00,,,0.00,0024,Weather View 32 v70,2013-11-11 20:45:00,
2013-11-11 15:50:00,47.2,30.5,30.05,WSW,248,4.0,17.0,52,0.00,,,0.00,0024,Weather View 32 v70,2013-11-11 20:50:00,
2013-11-11 15:55:00,47.2,30.0,30.04,SW,225,11.0,17.0,51,0.00,,,0.00,0008,Weather View 32 v70,2013-11-11 20:55:00,
2013-11-11 16:05:00,47.1,31.3,30.04,WSW,248,2.0,17.0,54,0.00,,,0.00,0000,Weather View 32 v70,2013-11-11 21:05:00,
2013-11-11 16:10:00,47.1,31.7,30.04,SSW,203,4.0,17.0,55,0.00,,,0.00,0000,Weather View 32 v70,2013-11-11 21:10:00,
2013-11-11 16:15:00,47.1,31.7,30.04,SSW,203,4.0,17.0,55,0.00,,,0.00,0000,Weather View 32 v70,2013-11-11 21:15:00,
2013-11-11 16:25:00,46.9,31.5,30.03,SW,225,3.0,17.0,55,0.00,,,0.00,0000,Weather View 32 v70,2013-11-11 21:25:00,
2013-11-11 16:35:00,46.9,32.0,30.03,WSW,248,0.0,12.0,56,0.00,,,0.00,0000,Weather View 32 v70,2013-11-11 21:35:00,
2013-11-11 16:40:00,46.8,31.9,30.03,West,270,2.0,12.0,56,0.00,,,0.00,0000,Weather View 32 v70,2013-11-11 21:40:00,
2013-11-11 16:45:00,46.8,31.9,30.02,SW,225,2.0,12.0,56,0.00,,,0.00,0000,Weather View 32 v70,2013-11-11 21:45:00,
2013-11-11 16:52:00,46.7,31.3,30.02,WNW,293,0.0,12.0,55,0.00,,,0.00,0000,Weather View 32 v70,2013-11-11 21:52:00,
2013-11-11 17:00:00,46.4,31.1,30.02,SW,225,0.0,12.0,55,0.00,,,0.00,0000,Weather View 32 v70,2013-11-11 22:00:00,
2013-11-11 17:10:00,46.3,30.1,30.02,WSW,248,2.0,14.0,53,0.00,,,0.00,0000,Weather View 32 v70,2013-11-11 22:10:00,
2013-11-11 17:15:00,46.2,29.5,30.02,WSW,248,0.0,14.0,52,0.00,,,0.00,0000,Weather View 32 v70,2013-11-11 22:15:00,
2013-11-11 17:20:00,46.2,29.0,30.01,West,270,0.0,14.0,51,0.00,,,0.00,0000,Weather View 32 v70,2013-11-11 22:20:00,
2013-11-11 17:30:00,46.3,29.6,30.02,WNW,293,0.0,14.0,52,0.00,,,0.00,0000,Weather View 32 v70,2013-11-11 22:30:00,
2013-11-11 17:35:00,46.2,29.5,30.02,West,270,0.0,14.0,52,0.00,,,0.00,0000,Weather View 32 v70,2013-11-11 22:35:00,
2013-11-11 17:40:00,46.2,29.5,30.02,SW,225,0.0,14.0,52,0.00,,,0.00,0000,Weather View 32 v70,2013-11-11 22:40:00,
2013-11-11 17:50:00,46.4,30.6,30.02,West,270,0.0,14.0,54,0.00,,,0.00,0000,Weather View 32 v70,2013-11-11 22:50:00,
2013-11-11 18:00:00,46.4,31.1,30.02,West,270,0.0,14.0,55,0.00,,,0.00,0000,Weather View 32 v70,2013-11-11 23:00:00,
2013-11-11 18:05:00,46.7,31.3,30.02,SSW,203,0.0,14.0,55,0.00,,,0.00,0000,Weather View 32 v70,2013-11-11 23:05:00,
2013-11-11 18:10:00,46.7,31.8,30.02,SSW,203,3.0,14.0,56,0.00,,,0.00,0000,Weather View 32 v70,2013-11-11 23:10:00,
2013-11-11 18:15:00,46.9,32.0,30.02,NNW,338,0.0,9.0,56,0.00,,,0.00,0008,Weather View 32 v70,2013-11-11 23:15:00,
2013-11-11 18:25:00,46.9,32.4,30.02,WSW,248,4.0,9.0,57,0.00,,,0.00,0008,Weather View 32 v70,2013-11-11 23:25:00,
2013-11-11 18:35:00,47.0,32.1,30.02,West,270,3.0,10.0,56,0.00,,,0.00,0000,Weather View 32 v70,2013-11-11 23:35:00,
2013-11-11 18:45:00,47.1,30.8,30.01,SW,225,2.0,10.0,53,0.00,,,0.00,0000,Weather View 32 v70,2013-11-11 23:45:00,
2013-11-11 18:50:00,47.2,30.5,30.01,WSW,248,6.0,12.0,52,0.00,,,0.00,0000,Weather View 32 v70,2013-11-11 23:50:00,
2013-11-11 19:00:00,47.7,31.4,30.00,West,270,5.0,14.0,53,0.00,,,0.00,0000,Weather View 32 v70,2013-11-12 00:00:00,
2013-11-11 19:05:00,47.8,31.9,30.01,WSW,248,1.0,14.0,54,0.00,,,0.00,0000,Weather View 32 v70,2013-11-12 00:05:00,
2013-11-11 19:15:00,47.7,32.7,30.01,West,270,2.0,14.0,56,0.00,,,0.00,0008,Weather View 32 v70,2013-11-12 00:15:00,
2013-11-11 19:25:00,47.6,33.9,30.01,WNW,293,0.0,14.0,59,0.00,,,0.00,0000,Weather View 32 v70,2013-11-12 00:25:00,
2013-11-11 19:35:00,47.6,34.3,30.00,West,270,2.0,14.0,60,0.00,,,0.00,0008,Weather View 32 v70,2013-11-12 00:35:00,
2013-11-11 19:40:00,47.7,34.9,30.00,WSW,248,0.0,14.0,61,0.00,,,0.00,0000,Weather View 32 v70,2013-11-12 00:40:00,
2013-11-11 19:45:00,47.7,34.9,30.00,WNW,293,2.0,14.0,61,0.00,,,0.00,0000,Weather View 32 v70,2013-11-12 00:45:00,
2013-11-11 19:54:00,47.7,34.9,30.00,West,270,0.0,14.0,61,0.00,,,0.00,0008,Weather View 32 v70,2013-11-12 00:54:00,
2013-11-11 20:00:00,47.6,35.6,30.00,SW,225,0.0,9.0,63,0.00,,,0.00,0000,Weather View 32 v70,2013-11-12 01:00:00,
2013-11-11 20:10:00,47.7,35.7,30.00,West,270,0.0,9.0,63,0.00,,,0.00,0008,Weather View 32 v70,2013-11-12 01:10:00,
2013-11-11 20:15:00,47.7,35.7,30.00,West,270,2.0,9.0,63,0.00,,,0.00,0000,Weather View 32 v70,2013-11-12 01:15:00,
2013-11-11 20:20:00,47.8,36.2,30.00,WNW,293,0.0,9.0,64,0.00,,,0.00,0000,Weather View 32 v70,2013-11-12 01:20:00,
2013-11-11 20:25:00,47.8,36.2,29.99,WSW,248,0.0,9.0,64,0.00,,,0.00,0000,Weather View 32 v70,2013-11-12 01:25:00,
2013-11-11 20:30:00,47.8,36.6,29.99,WSW,248,0.0,9.0,65,0.00,,,0.00,0008,Weather View 32 v70,2013-11-12 01:30:00,
2013-11-11 20:40:00,48.0,36.8,29.99,SW,225,0.0,9.0,65,0.00,,,0.00,0000,Weather View 32 v70,2013-11-12 01:40:00,
2013-11-11 20:45:00,48.0,36.8,29.98,SSW,203,0.0,9.0,65,0.00,,,0.00,0000,Weather View 32 v70,2013-11-12 01:45:00,
2013-11-11 20:50:00,48.1,37.3,29.98,SW,225,0.0,9.0,66,0.00,,,0.00,0000,Weather View 32 v70,2013-11-12 01:50:00,
2013-11-11 20:55:00,48.3,37.5,29.98,SW,225,0.0,9.0,66,0.00,,,0.00,0008,Weather View 32 v70,2013-11-12 01:55:00,
2013-11-11 21:05:00,48.7,37.8,29.98,WSW,248,0.0,9.0,66,0.00,,,0.00,0000,Weather View 32 v70,2013-11-12 02:05:00,
2013-11-11 21:10:00,48.9,38.0,29.98,SSW,203,0.0,8.0,66,0.00,,,0.00,0000,Weather View 32 v70,2013-11-12 02:10:00,
2013-11-11 21:15:00,49.1,38.2,29.98,WSW,248,0.0,8.0,66,0.00,,,0.00,0016,Weather View 32 v70,2013-11-12 02:15:00,
2013-11-11 21:20:00,49.2,38.0,29.97,SW,225,4.0,8.0,65,0.00,,,0.00,0016,Weather View 32 v70,2013-11-12 02:20:00,
2013-11-11 21:25:00,49.8,37.7,29.97,WSW,248,4.0,16.0,63,0.00,,,0.00,0000,Weather View 32 v70,2013-11-12 02:25:00,
2013-11-11 21:30:00,50.0,37.5,29.97,SSW,203,5.0,16.0,62,0.00,,,0.00,0000,Weather View 32 v70,2013-11-12 02:30:00,
2013-11-11 21:40:00,50.3,36.0,29.97,West,270,0.0,16.0,58,0.00,,,0.00,0000,Weather View 32 v70,2013-11-12 02:40:00,
2013-11-11 21:45:00,50.4,35.2,29.96,SW,225,6.0,16.0,56,0.00,,,0.00,0000,Weather View 32 v70,2013-11-12 02:45:00,
2013-11-11 21:55:00,50.5,35.3,29.96,West,270,1.0,17.0,56,0.00,,,0.00,0000,Weather View 32 v70,2013-11-12 02:55:00,
2013-11-11 22:10:00,50.4,34.8,29.96,SW,225,6.0,22.0,55,0.00,,,0.00,0000,Weather View 32 v70,2013-11-12 03:10:00,
2013-11-11 22:15:00,50.5,34.9,29.96,NW,315,0.0,22.0,55,0.00,,,0.00,0000,Weather View 32 v70,2013-11-12 03:15:00,
2013-11-11 22:20:00,50.5,34.9,29.96,SW,225,7.0,22.0,55,0.00,,,0.00,0000,Weather View 32 v70,2013-11-12 03:20:00,
2013-11-11 22:25:00,50.6,34.5,29.95,SW,225,6.0,22.0,54,0.00,,,0.00,0000,Weather View 32 v70,2013-11-12 03:25:00,
2013-11-11 22:35:00,50.6,34.5,29.95,West,270,3.0,22.0,54,0.00,,,0.00,0008,Weather View 32 v70,2013-11-12 03:35:00,
2013-11-11 22:40:00,50.6,34.5,29.95,SW,225,2.0,22.0,54,0.00,,,0.00,0000,Weather View 32 v70,2013-11-12 03:40:00,
2013-11-11 22:45:00,50.5,34.4,29.95,SW,225,4.0,22.0,54,0.00,,,0.00,0000,Weather View 32 v70,2013-11-12 03:45:00,
2013-11-11 22:55:00,50.6,33.6,29.95,WNW,293,3.0,22.0,52,0.00,,,0.00,0016,Weather View 32 v70,2013-11-12 03:55:00,
2013-11-11 23:00:00,50.5,33.9,29.95,WSW,248,5.0,22.0,53,0.00,,,0.00,0000,Weather View 32 v70,2013-11-12 04:00:00,
2013-11-11 23:05:00,50.5,33.5,29.95,SSW,203,10.0,15.0,52,0.00,,,0.00,0000,Weather View 32 v70,2013-11-12 04:05:00,
2013-11-11 23:15:00,50.5,33.9,29.95,WSW,248,6.0,15.0,53,0.00,,,0.00,0000,Weather View 32 v70,2013-11-12 04:15:00,
2013-11-11 23:20:00,50.5,33.9,29.95,SSW,203,0.0,15.0,53,0.00,,,0.00,0000,Weather View 32 v70,2013-11-12 04:20:00,
2013-11-11 23:25:00,50.4,33.9,29.95,WSW,248,7.0,15.0,53,0.00,,,0.00,0000,Weather View 32 v70,2013-11-12 04:25:00,
2013-11-11 23:30:00,50.4,34.3,29.95,West,270,3.0,17.0,54,0.00,,,0.00,0008,Weather View 32 v70,2013-11-12 04:30:00,
2013-11-11 23:40:00,50.3,34.2,29.94,WSW,248,9.0,17.0,54,0.00,,,0.00,0000,Weather View 32 v70,2013-11-12 04:40:00,
2013-11-11 23:45:00,50.4,34.3,29.94,SSW,203,5.0,17.0,54,0.00,,,0.00,0000,Weather View 32 v70,2013-11-12 04:45:00,
2013-11-11 23:55:00,50.3,35.1,29.94,SW,225,2.0,17.0,56,0.00,,,0.00,0000,Weather View 32 v70,2013-11-12 04:55:00,